7 * 24
多渠道服务支持
STARLINK-34372 是 SpaceX Starlink 卫星互联网项目中的一颗低轨卫星,属于第 6 批次发射的星链卫星群。该卫星运行在约 550 公里的轨道高度,旨在为全球用户提供高速互联网服务。它采用先进的推进系统和激光通信技术,具备自动避障能力,以减少与其他卫星或太空碎片的碰撞风险。作为星链计划的一部分,STARLINK-34372 有助于扩大网络覆盖范围,提升连接速度与稳定性,特别是在偏远和网络基础设施薄弱的地区。
美国
(US)
| 数据来源 | 国际轨道数据 |
| 星历时间: | 2025-11-09T02:15:01+0800 18小时前 查看轨道信息 |
| 半长轴: | 6950.167km |
| 偏心率: | 0.0002887 |
| 轨道倾角: | 69.999° |
| 近地点辐角 | 251.820° |
| 升交点赤经 | 139.397° |
| 平近点角 | 108.265° |
| 近地点: | 570.025km |
| 远地点: | 574.039km |
| 周期: | 96.106分钟 |
| 每日圈数: | 14.983384 |